SCP
-0 -0 -0 -0 -0 0 0 0 0 0 0 0 0 0 0 0 0 0 0 0 0 0 0 0 0 0 0 0 0 0 0 0 0 0 0 0 0 0
0 0 -0 -0 -0 -0 0 0 0 0 0 0 0 0 0 0 0 0 0 0 0 0 0 0 0 0 0 0 0 0 0 0 0 0 0 0 0 0
0 0 0 0 -0 0 0 0 0 0 0 0 0 0 0 0 0 0 0 0 0 0 0 0 0 0 0 0 0 0 0 0 0 0 0 0 0 0
0 0 0 0 0 0 0 0 0 0 0 0 0 1 0 0 0 0 0 0 0 0 0 0 0 0 0 0 0 0 0 0 0 0 0 0 0 0
0 -0 0 0 0 0 0 0 0 0 0 0 0 0 0 0 0 0 0 0 0 0 0 0 0 0 0 0 0 0 0 0 0 0 0 0 0 0
0 -0 -0 -0 0 0 0 0 0 0 0 1 0 0 1 1 0 0 0 1 0 0 0 0 0 0 0 0 0 0 0 0 0 0 0 0 0 0
-0 -0 -0 -0 -0 0 1 1 0 0 0 0 0 0 0 1 1 0 0 0 0 0 0 0 0 0 0 0 0 0 0 0 0 0 0 0 0 0
-1 -1 -1 -1 -0 0 1 1 1 0 0 1 0 0 0 0 0 0 1 1 1 0 0 0 0 0 0 0 0 0 0 0 0 0 0 0 0 0
-1 -0 0 1 1 1 1 1 1 1 0 0 0 0 0 0 0 0 0 0 0 0 0 0 0 0 0 0 0 0 0 0 0 0 0 0 0 0
-1 -0 0 1 2 2 4 2 1 1 1 0 0 0 0 1 1 1 1 0 0 0 0 0 0 0 0 0 0 0 0 0 0 0 0 0 0 0
0 2 2 1 3 3 4 4 3 3 2 0 0 0 1 1 1 1 1 0 0 0 0 0 0 0 0 0 0 0 0 0 0 0 0 0 0 0
1 2 2 3 5 4 5 7 6 6 4 0 0 0 0 0 0 0 0 0 0 0 0 0 0 0 0 0 0 0 0 0 0 0 0 0 0 0
2 2 3 3 2 2 2 6 7 7 6 2 0 0 0 0 0 0 0 0 0 0 0 0 0 0 0 0 0 0 0 0 0 0 0 0 0 0
3 4 4 2 1 1 0 1 3 3 8 5 2 1 1 0 0 0 0 0 0 0 0 0 0 0 0 0 0 0 0 0 0 0 0 0 0 0
4 4 4 3 1 0 0 0 0 1 6 7 3 2 0 0 0 0 0 0 0 0 0 0 0 0 0 0 0 0 0 0 0 0 0 0 0 0
0 2 2 1 0 0 0 0 0 0 2 5 3 2 0 0 0 0 0 0 0 0 0 0 0 0 0 0 0 0 0 0 0 0 0 0 0 0
1 2 0 0 0 0 0 0 0 0 1 2 0 0 0 0 0 0 0 0 0 0 0 0 0 0 0 0 0 0 0 0 0 0 0 0 0 0
2 2 2 1 1 0 0 0 0 0 0 0 0 0 0 0 0 0 0 0 0 0 0 0 0 0 0 0 0 0 0 0 0 0 0 0 0 0
1 0 0 0 0 0 0 0 0 0 0 0 0 0 0 0 0 0 0 0 0 0 0 0 0 0 0 0 0 0 0 0 0 0 0 0 0 0
0 0 0 0 0 0 0 0 0 0 0 0 0 0 0 0 0 0 0 0 0 0 0 0 0 0 0 0 0 0 0 0 0 0 0 0 0 0
0 0 0 0 0 0 0 0 0 0 0 0 0 0 0 0 0 0 0 0 0 0 0 0 0 0 0 0 0 0 0 0 0 0 0 0 0 0
0 0 0 0 0 0 0 0 0 0 0 0 0 0 0 0 0 0 0 0 0 0 0 0 0 0 0 0 0 0 0 0 0 0 0 0 0 0
0 0 0 0 0 0 0 0 0 0 0 0 0 0 0 0 0 0 0 0 0 0 0 0 0 0 0 0 0 0 0 0 0 0 0 0 0 0
Wind_Speed_500mb
29 30 35 39 35 26 26 31 23 15 21 36 36 30 30 28 25 26 26 31 29 28 25 25 26 25 24 22 24 27 31 32 27 25 28 26 27 27
32 30 32 35 35 34 29 28 38 34 31 29 31 41 35 37 34 31 27 25 27 27 27 26 28 29 25 24 28 31 35 37 30 28 26 26 29 28
42 39 35 35 42 42 39 37 37 40 46 42 30 32 41 43 36 32 33 33 30 33 34 28 22 23 26 29 34 35 38 36 31 29 30 30 29 31
52 50 47 44 49 48 50 47 46 46 46 43 43 38 49 45 37 32 32 37 41 31 25 25 33 31 30 31 27 29 29 28 26 27 27 28 29 31
57 58 57 55 55 58 60 60 57 51 52 53 49 48 45 42 43 39 38 34 32 38 35 34 31 30 34 34 31 29 28 27 24 22 25 28 32 39
66 70 69 68 67 63 62 68 70 68 64 65 62 60 58 50 50 49 49 42 30 31 36 37 32 27 35 36 31 29 30 28 29 28 30 33 39 45
64 72 77 78 78 76 72 70 71 78 80 77 74 72 69 70 68 59 53 46 39 32 37 38 38 29 36 35 30 26 28 26 33 26 29 37 45 44
76 72 75 79 80 80 80 76 74 76 83 90 88 84 79 75 65 60 54 54 54 46 42 38 39 29 39 38 31 27 28 35 24 26 28 37 37 32
84 85 85 86 85 84 85 83 83 82 80 79 85 92 92 82 70 60 56 54 62 62 59 41 32 35 34 46 37 25 23 21 22 21 29 31 31 27
90 92 94 94 91 89 87 88 90 88 87 86 86 87 89 87 75 59 53 50 60 73 51 43 42 43 37 35 29 26 24 21 18 23 25 29 30 26
98 97 100 103 102 95 93 94 94 96 92 92 93 93 90 84 80 68 72 67 77 78 70 47 38 32 21 28 26 25 19 15 14 18 15 22 26 27
100 104 108 108 104 101 97 97 103 108 100 101 102 100 104 93 96 97 85 84 70 72 61 50 37 22 24 31 27 20 13 12 15 16 17 25 22 24
100 100 103 98 89 89 93 96 102 98 103 107 109 106 106 118 118 112 93 82 83 74 47 32 31 35 34 28 31 23 18 12 12 11 17 22 23 26
93 93 88 72 61 61 64 67 68 72 98 108 115 115 109 111 125 110 89 78 65 61 30 37 28 40 49 39 32 29 23 15 16 18 23 26 31 29
75 78 81 80 76 73 71 64 60 70 86 96 103 108 112 114 111 111 90 42 55 41 39 32 41 43 42 34 29 28 30 27 28 20 22 27 30 36
56 59 68 76 79 81 87 88 88 78 74 85 97 105 103 106 97 59 34 44 50 47 37 32 42 45 34 25 26 27 26 15 11 21 25 28 38 28
39 45 56 63 66 66 66 64 62 69 77 86 80 84 84 78 33 11 51 46 52 49 46 51 46 31 22 19 21 18 23 16 20 24 30 32 25 34
47 51 53 54 53 57 62 64 63 56 50 44 52 28 10 20 13 43 42 46 48 48 49 47 42 36 22 22 21 22 21 19 23 29 21 23 27 23
41 38 42 48 55 56 54 47 36 30 20 13 19 9 12 28 35 39 42 43 38 41 41 43 41 36 28 26 20 26 29 21 19 17 18 23 14 15
41 42 41 39 36 25 12 6 6 10 15 15 13 19 17 32 37 45 37 41 42 44 42 39 38 39 28 20 21 18 32 22 16 13 21 14 14 21
33 29 25 18 11 6 6 13 16 21 18 17 20 23 26 35 48 35 43 49 45 43 39 37 34 27 27 26 27 17 17 21 18 17 20 16 14 20
19 15 11 10 12 19 22 18 15 10 16 18 16 23 24 28 34 44 46 44 45 42 37 32 32 33 31 30 29 20 22 20 14 15 21 22 17 17
14 12 10 16 12 11 9 13 13 13 24 18 23 16 27 39 39 39 40 40 44 41 40 41 37 32 31 34 34 29 23 19 18 17 21 24 21 21
Wind_Direction_500mb
220 217 217 212 212 221 239 239 235 237 227 231 235 240 247 252 263 277 280 281 281 280 276 279 282 285 289 302 313 319 319 310 298 293 296 295 304 309
222 222 220 212 215 224 228 235 228 236 243 240 241 252 241 244 254 265 273 279 287 281 277 275 279 281 280 292 311 313 316 314 304 299 298 300 307 307
240 238 231 225 223 227 228 235 232 230 238 238 235 238 238 241 251 263 267 271 278 285 281 267 264 279 279 295 305 315 313 306 307 307 305 307 308 311
239 245 246 239 233 229 233 236 240 238 235 236 231 232 229 238 250 266 276 276 269 261 253 254 270 276 280 297 303 315 323 318 310 308 309 309 310 314
241 242 245 247 248 242 238 241 244 243 243 242 238 241 242 241 239 247 260 264 271 264 263 262 260 272 279 284 285 296 299 295 293 301 305 304 306 311
246 249 249 250 253 253 248 245 246 247 245 244 242 239 243 246 249 252 253 259 262 246 253 256 252 262 274 272 277 274 284 286 293 294 296 300 311 313
251 250 254 257 258 258 257 253 248 246 248 246 245 244 241 242 247 251 255 262 258 251 245 247 244 242 262 262 274 284 291 289 290 297 311 320 322 318
256 257 258 260 262 262 262 260 257 254 251 248 250 249 249 244 243 243 250 250 251 248 241 236 249 262 256 266 273 274 275 281 285 303 319 321 329 337
259 260 260 260 262 263 265 267 264 262 259 259 256 255 255 251 247 237 237 250 256 245 231 237 256 258 249 277 274 265 268 265 295 309 321 330 340 344
262 264 264 265 265 264 265 266 267 268 266 259 258 259 258 257 249 242 237 252 259 247 242 255 279 265 270 262 249 255 275 284 290 313 321 328 332 324
262 263 265 268 269 267 268 270 273 270 271 270 267 267 261 252 245 224 234 265 266 249 259 257 262 282 252 236 239 262 270 269 293 303 306 310 324 310
261 265 265 265 267 265 261 264 269 272 274 273 268 261 257 244 235 240 239 253 258 251 250 253 244 239 216 224 239 249 234 267 279 284 313 314 299 311
262 264 264 264 264 265 264 264 265 274 273 272 273 266 253 246 240 240 234 243 261 247 251 241 232 199 202 201 219 227 250 261 262 290 300 286 295 300
262 262 264 268 274 269 270 270 273 273 267 268 268 265 258 252 243 245 234 250 251 250 262 232 220 197 208 215 225 237 242 238 258 274 283 290 298 298
263 264 266 263 261 264 269 270 272 268 267 267 267 270 270 267 249 242 233 223 246 223 228 230 205 203 217 231 248 245 228 236 259 261 276 283 296 302
258 262 265 265 266 269 271 271 276 276 270 272 276 277 271 254 237 234 244 208 204 208 206 207 202 214 223 238 244 227 226 226 226 258 269 291 304 304
259 257 258 262 267 272 278 282 281 277 275 277 285 270 253 229 206 213 217 197 206 196 184 189 198 207 215 224 188 192 175 198 231 256 281 298 314 316
249 253 261 264 267 276 280 283 283 288 289 292 275 263 204 159 229 210 198 198 198 196 189 185 189 190 187 177 174 178 188 205 248 275 294 303 314 308
246 251 255 263 269 272 281 287 295 300 309 301 258 230 185 204 189 199 184 190 200 194 192 192 194 196 196 189 199 216 215 229 255 287 292 319 343 327
260 263 266 268 277 281 283 294 311 292 266 253 230 216 198 190 183 183 191 190 185 186 188 193 201 202 215 215 209 206 203 236 256 284 317 338 0 338
252 253 262 260 255 253 256 276 271 279 269 217 211 216 198 189 188 206 191 177 178 184 198 208 203 203 201 219 216 214 228 228 258 301 323 334 336 325
247 256 253 253 258 253 262 264 252 236 193 187 198 211 211 220 197 183 177 178 186 194 202 206 201 206 230 224 224 237 218 227 244 276 315 324 318 320
214 230 246 271 248 221 220 179 165 168 182 196 185 205 197 183 178 181 179 189 194 200 207 208 213 225 232 230 242 207 201 225 239 268 299 310 311 310
Wind_Speed_850mb
29 30 35 39 35 26 26 31 23 15 21 36 36 30 30 28 25 26 26 31 29 28 25 25 26 25 24 22 24 27 31 32 27 25 28 26 27 27
32 30 32 35 35 34 29 28 38 34 31 29 31 41 35 37 34 31 27 25 27 27 27 26 28 29 25 24 28 31 35 37 30 28 26 26 29 28
42 39 35 35 42 42 39 37 37 40 46 42 30 32 41 43 36 32 33 33 30 33 34 28 22 23 26 29 34 35 38 36 31 29 30 30 29 31
52 50 47 44 49 48 50 47 46 46 46 43 43 38 49 45 37 32 32 37 41 31 25 25 33 31 30 31 27 29 29 28 26 27 27 28 29 31
57 58 57 55 55 58 60 60 57 51 52 53 49 48 45 42 43 39 38 34 32 38 35 34 31 30 34 34 31 29 28 27 24 22 25 28 32 39
66 70 69 68 67 63 62 68 70 68 64 65 62 60 58 50 50 49 49 42 30 31 36 37 32 27 35 36 31 29 30 28 29 28 30 33 39 45
64 72 77 78 78 76 72 70 71 78 80 77 74 72 69 70 68 59 53 46 39 32 37 38 38 29 36 35 30 26 28 26 33 26 29 37 45 44
76 72 75 79 80 80 80 76 74 76 83 90 88 84 79 75 65 60 54 54 54 46 42 38 39 29 39 38 31 27 28 35 24 26 28 37 37 32
84 85 85 86 85 84 85 83 83 82 80 79 85 92 92 82 70 60 56 54 62 62 59 41 32 35 34 46 37 25 23 21 22 21 29 31 31 27
90 92 94 94 91 89 87 88 90 88 87 86 86 87 89 87 75 59 53 50 60 73 51 43 42 43 37 35 29 26 24 21 18 23 25 29 30 26
98 97 100 103 102 95 93 94 94 96 92 92 93 93 90 84 80 68 72 67 77 78 70 47 38 32 21 28 26 25 19 15 14 18 15 22 26 27
100 104 108 108 104 101 97 97 103 108 100 101 102 100 104 93 96 97 85 84 70 72 61 50 37 22 24 31 27 20 13 12 15 16 17 25 22 24
100 100 103 98 89 89 93 96 102 98 103 107 109 106 106 118 118 112 93 82 83 74 47 32 31 35 34 28 31 23 18 12 12 11 17 22 23 26
93 93 88 72 61 61 64 67 68 72 98 108 115 115 109 111 125 110 89 78 65 61 30 37 28 40 49 39 32 29 23 15 16 18 23 26 31 29
75 78 81 80 76 73 71 64 60 70 86 96 103 108 112 114 111 111 90 42 55 41 39 32 41 43 42 34 29 28 30 27 28 20 22 27 30 36
56 59 68 76 79 81 87 88 88 78 74 85 97 105 103 106 97 59 34 44 50 47 37 32 42 45 34 25 26 27 26 15 11 21 25 28 38 28
39 45 56 63 66 66 66 64 62 69 77 86 80 84 84 78 33 11 51 46 52 49 46 51 46 31 22 19 21 18 23 16 20 24 30 32 25 34
47 51 53 54 53 57 62 64 63 56 50 44 52 28 10 20 13 43 42 46 48 48 49 47 42 36 22 22 21 22 21 19 23 29 21 23 27 23
41 38 42 48 55 56 54 47 36 30 20 13 19 9 12 28 35 39 42 43 38 41 41 43 41 36 28 26 20 26 29 21 19 17 18 23 14 15
41 42 41 39 36 25 12 6 6 10 15 15 13 19 17 32 37 45 37 41 42 44 42 39 38 39 28 20 21 18 32 22 16 13 21 14 14 21
33 29 25 18 11 6 6 13 16 21 18 17 20 23 26 35 48 35 43 49 45 43 39 37 34 27 27 26 27 17 17 21 18 17 20 16 14 20
19 15 11 10 12 19 22 18 15 10 16 18 16 23 24 28 34 44 46 44 45 42 37 32 32 33 31 30 29 20 22 20 14 15 21 22 17 17
14 12 10 16 12 11 9 13 13 13 24 18 23 16 27 39 39 39 40 40 44 41 40 41 37 32 31 34 34 29 23 19 18 17 21 24 21 21
Wind_Direction_850mb
220 217 217 212 212 221 239 239 235 237 227 231 235 240 247 252 263 277 280 281 281 280 276 279 282 285 289 302 313 319 319 310 298 293 296 295 304 309
222 222 220 212 215 224 228 235 228 236 243 240 241 252 241 244 254 265 273 279 287 281 277 275 279 281 280 292 311 313 316 314 304 299 298 300 307 307
240 238 231 225 223 227 228 235 232 230 238 238 235 238 238 241 251 263 267 271 278 285 281 267 264 279 279 295 305 315 313 306 307 307 305 307 308 311
239 245 246 239 233 229 233 236 240 238 235 236 231 232 229 238 250 266 276 276 269 261 253 254 270 276 280 297 303 315 323 318 310 308 309 309 310 314
241 242 245 247 248 242 238 241 244 243 243 242 238 241 242 241 239 247 260 264 271 264 263 262 260 272 279 284 285 296 299 295 293 301 305 304 306 311
246 249 249 250 253 253 248 245 246 247 245 244 242 239 243 246 249 252 253 259 262 246 253 256 252 262 274 272 277 274 284 286 293 294 296 300 311 313
251 250 254 257 258 258 257 253 248 246 248 246 245 244 241 242 247 251 255 262 258 251 245 247 244 242 262 262 274 284 291 289 290 297 311 320 322 318
256 257 258 260 262 262 262 260 257 254 251 248 250 249 249 244 243 243 250 250 251 248 241 236 249 262 256 266 273 274 275 281 285 303 319 321 329 337
259 260 260 260 262 263 265 267 264 262 259 259 256 255 255 251 247 237 237 250 256 245 231 237 256 258 249 277 274 265 268 265 295 309 321 330 340 344
262 264 264 265 265 264 265 266 267 268 266 259 258 259 258 257 249 242 237 252 259 247 242 255 279 265 270 262 249 255 275 284 290 313 321 328 332 324
262 263 265 268 269 267 268 270 273 270 271 270 267 267 261 252 245 224 234 265 266 249 259 257 262 282 252 236 239 262 270 269 293 303 306 310 324 310
261 265 265 265 267 265 261 264 269 272 274 273 268 261 257 244 235 240 239 253 258 251 250 253 244 239 216 224 239 249 234 267 279 284 313 314 299 311
262 264 264 264 264 265 264 264 265 274 273 272 273 266 253 246 240 240 234 243 261 247 251 241 232 199 202 201 219 227 250 261 262 290 300 286 295 300
262 262 264 268 274 269 270 270 273 273 267 268 268 265 258 252 243 245 234 250 251 250 262 232 220 197 208 215 225 237 242 238 258 274 283 290 298 298
263 264 266 263 261 264 269 270 272 268 267 267 267 270 270 267 249 242 233 223 246 223 228 230 205 203 217 231 248 245 228 236 259 261 276 283 296 302
258 262 265 265 266 269 271 271 276 276 270 272 276 277 271 254 237 234 244 208 204 208 206 207 202 214 223 238 244 227 226 226 226 258 269 291 304 304
259 257 258 262 267 272 278 282 281 277 275 277 285 270 253 229 206 213 217 197 206 196 184 189 198 207 215 224 188 192 175 198 231 256 281 298 314 316
249 253 261 264 267 276 280 283 283 288 289 292 275 263 204 159 229 210 198 198 198 196 189 185 189 190 187 177 174 178 188 205 248 275 294 303 314 308
246 251 255 263 269 272 281 287 295 300 309 301 258 230 185 204 189 199 184 190 200 194 192 192 194 196 196 189 199 216 215 229 255 287 292 319 343 327
260 263 266 268 277 281 283 294 311 292 266 253 230 216 198 190 183 183 191 190 185 186 188 193 201 202 215 215 209 206 203 236 256 284 317 338 0 338
252 253 262 260 255 253 256 276 271 279 269 217 211 216 198 189 188 206 191 177 178 184 198 208 203 203 201 219 216 214 228 228 258 301 323 334 336 325
247 256 253 253 258 253 262 264 252 236 193 187 198 211 211 220 197 183 177 178 186 194 202 206 201 206 230 224 224 237 218 227 244 276 315 324 318 320
214 230 246 271 248 221 220 179 165 168 182 196 185 205 197 183 178 181 179 189 194 200 207 208 213 225 232 230 242 207 201 225 239 268 299 310 311 310